Flag for Germany Weather past 2 weeks in Bietigheim-Bissingen, Baden-Württemberg, Germany

Now
57 °F

Overcast.


Feels Like: 56 °F
Forecast: 43 / 61 °F
Wind: 6 mph from Northwest

Location: Stuttgart-Echterdingen

Current Time: May 26, 2015 at 2:56:02 PM

Latest Report: May 26, 2015 at 2:00 PM


Visibility: 16 mi

Pressure: 30.06 "Hg

Humidity: 66%

Dew point: 46 °F

Location of Bietigheim-BissingenLocation

Historic Weather in Bietigheim-Bissingen — Graph

°F

Bietigheim-Bissingen temperature yesterday

Maximum temperature yesterday: 64 °F (at 12:00 PM)
Minimum temperature yesterday: 54 °F (at 10:00 PM)
Average temperature yesterday: 57 °F

Past Weeks' High & Low Weather Summary

 TemperatureHumidityPressure
High84 °F (May 12, 5:00 PM)98% (May 16, 7:00 AM)30.36 "Hg (May 16, 7:00 AM)
Low37 °F (May 22, 6:00 AM)27% (May 12, 4:00 PM)29.71 "Hg (May 18, 7:00 PM)
Average58 °F66%30.05 "Hg
* Reported May 11 1:00 PM — May 26 1:00 PM, Bietigheim-Bissingen, Weather by CustomWeather, © 2015

Note: Actual official high and low records may vary slightly from our data, if they occured in-between our weather recording intervals... More about our weather records

Advertising

Bietigheim-Bissingen weather history for previous 24 hours

 ConditionsComfort  
Time TempWeatherWind HumidityBarometerVisibility
1:00 PM
Tue, May 26
56 °FOvercast.5 mph70%30.07 "Hg16 mi
12:00 PM55 °FOvercast.5 mph73%30.05 "Hg16 mi
10:00 AM53 °FOvercast.3 mph80%30.04 "Hg16 mi
9:00 AM53 °FOvercast.3 mph82%30.03 "Hg12 mi
8:00 AM51 °FOvercast.5 mph85%30.01 "Hg9 mi
7:00 AM51 °FLow clouds.5 mph86%30.00 "Hg10 mi
4:00 AM52 °FOvercast.3 mph92%29.96 "Hg7 mi
3:00 AM53 °FOvercast.2 mph91%29.96 "Hg11 mi
2:00 AM52 °FOvercast.2 mph91%29.97 "Hg10 mi
1:00 AM53 °FOvercast.3 mph93%29.97 "Hg11 mi
12:00 AM53 °FOvercast.2 mph94%29.96 "Hg9 mi
10:00 PM
Mon, May 25
54 °FSprinkles. Overcast.1 mph92%29.96 "Hg7 mi
9:00 PM54 °FOvercast.3 mph88%29.95 "Hg12 mi
8:00 PM55 °FSprinkles. Overcast.6 mph89%29.94 "Hg16 mi
7:00 PM54 °FSprinkles. Overcast.3 mph94%29.94 "Hg3 mi
6:00 PM57 °FOvercast.3 mph84%29.91 "Hg47 mi
5:00 PM57 °FSprinkles. Overcast.3 mph87%29.92 "Hg12 mi
4:00 PM61 °FSprinkles. Overcast.1 mph79%29.91 "Hg16 mi
3:00 PM59 °FOvercast.1 mph85%29.93 "Hg1 mi
2:00 PM60 °FSprinkles. Overcast.2 mph71%29.93 "Hg6 mi
Weather by CustomWeather, © 2015

See weather overviewHow to use our weather pages